STARLINK-35157

Last updated on Mon Oct 20 2025 00:02:07 GMT+0000 (Coordinated Universal Time)

1 65814U 25218Z 25292.25881031 .00049065 00000+0 89761-3 0 9997 2 65814 97.6027 152.8445 0001451 89.0514 271.0902 15.49208566 3644
UTC large
Height (km)
Speed (km/s)
/
Latitude / Longitude
Inclination (degrees)
Orbital Period (minutes)
Azimuth
Elevation
Range (km)
Doppler Factor

Next 0 passes for location: London (51.5072 / 0.1276)

Sorry there are no passes over London.